02.05.2024;09:00;9
02.05.2024;08:00;15
02.05.2024;07:00;13
02.05.2024;06:00;22
02.05.2024;05:00;7
02.05.2024;04:00;5
02.05.2024;03:00;5
02.05.2024;02:00;5
02.05.2024;01:00;5
02.05.2024;00:00;6
01.05.2024;23:00;6
01.05.2024;22:00;6
01.05.2024;21:00;6
01.05.2024;20:00;9
01.05.2024;19:00;6
01.05.2024;18:00;5
01.05.2024;17:00;4
01.05.2024;16:00;4
01.05.2024;15:00;4
01.05.2024;14:00;4
01.05.2024;13:00;4
01.05.2024;12:00;5
01.05.2024;11:00;6
01.05.2024;10:00;5
01.05.2024;09:00;8
01.05.2024;08:00;11
01.05.2024;07:00;13
01.05.2024;06:00;9
01.05.2024;05:00;9
01.05.2024;04:00;12
01.05.2024;03:00;22
01.05.2024;02:00;17
01.05.2024;01:00;11
01.05.2024;00:00;9
30.04.2024;23:00;14
30.04.2024;22:00;12
30.04.2024;21:00;28
30.04.2024;20:00;19
30.04.2024;19:00;12
30.04.2024;18:00;14
30.04.2024;17:00;13
30.04.2024;16:00;9
30.04.2024;15:00;7
30.04.2024;14:00;9
30.04.2024;13:00;9
30.04.2024;12:00;12
30.04.2024;11:00;11
30.04.2024;10:00;20
